TEVEL2-5

Last updated on Mon Sep 21 2026 00:03:15 GMT+0000 (Coordinated Universal Time)

1 63214U 25052E 26263.25216108 .00014186 00000+0 38782-3 0 9994 2 63214 97.3755 159.8605 0004367 110.2555 249.9160 15.37476873 84708
UTC large
Height (km)
Speed (km/s)
/
Latitude / Longitude
Inclination (degrees)
Orbital Period (minutes)
Azimuth
Elevation
Range (km)
Doppler Factor

Next 0 passes for location: London (51.5072 / 0.1276)

No passes found over London.
TEVEL2-5